Location: Miles
(41.4492°N, 81.6087°W)
Time: 08:43:30
(UTC+00:00)

Transit 2A - Pass Details

Date: 20 September 2024
Orbit: 590 x 960 km, 66.7° (Epoch: 09 October)

Event Time Altitude Azimuth Distance (km) Brightness Sun altitude
Rises 21:38:30 0° 181° (S) 3,378 9.6 19.1°
Reaches altitude 10° 21:41:03 10° 173° (S) 2,501 8.8 18.6°
Maximum altitude 21:46:18 35° 109° (ESE) 1,430 7.2 17.7°
Drops below altitude 10° 21:51:54 10° 46° (NE) 2,672 8.4 16.7°
Sets 21:54:42 0° 38° (NE) 3,640 9.0 16.2°
